Location: Brachbach
(49.1847°N, 9.7240°E)
Time: 14:41:57
(UTC+00:00)

CZ-2C R/B - Pass Details

Date: 10 August 2024
Orbit: 782 x 869 km, 98.3° (Epoch: 15 September)

Event Time Altitude Azimuth Distance (km) Brightness Sun altitude
Exits shadow 00:49:36 31° 145° (SE) 1,465 3.6 -22.8°
Maximum altitude 00:52:17 67° 71° (ENE) 919 2.9 -22.6°
Drops below altitude 10° 00:57:42 10° 350° (N) 2,459 5.9 -22.3°
Sets 01:00:03 0° 348° (NNW) 3,384 6.7 -22.1°
